DW4338 Weather Reports


time (UTC)temp
C
wind
direction
speed
KPH
gust
KPH
rain 1hr
cm
rain 24hr
cm
rain mn
cm
humidity
%
barometer
mb
20260508030007 5 128 6.4 0.0 0.00 0.00 0.00 76 1015.5
20260508024506 5 143 4.8 0.0 0.00 0.00 0.00 80 1015.5
20260508023004 5 132 6.4 0.0 0.00 0.00 0.00 81 1015.5
20260508021504 5 136 6.4 0.0 0.00 0.00 0.00 81 1015.5
20260508020002 5 150 6.4 0.0 0.00 0.00 0.00 82 1015.5
20260508014628 5 159 6.4 0.0 0.00 0.00 0.00 81 1015.5
20260508013101 5 186 3.2 0.0 0.00 0.00 0.00 80 1015.5
20260508011615 5 192 3.2 0.0 0.00 0.00 0.00 79 1015.5
20260508004558 5 192 1.6 0.0 0.00 0.00 0.00 79 1015.5
20260508003056 5 192 3.2 0.0 0.00 0.00 0.00 79 1015.5
20260508001600 5 192 1.6 0.0 0.00 0.00 0.00 79 1015.5
20260508000056 5 192 3.2 0.0 0.00 0.00 0.00 79 1015.5
20260507234553 5 193 3.2 0.0 0.00 0.00 0.00 80 1015.6
20260507233052 5 193 0.0 0.0 0.00 0.00 0.00 82 1015.6
20260507231551 5 193 0.0 0.0 0.00 0.00 0.00 82 1015.6
20260507230049 5 193 1.6 0.0 0.00 0.00 0.00 82 1015.7
20260507224549 5 193 3.2 0.0 0.00 0.00 0.00 81 1015.8
20260507223046 5 193 4.8 0.0 0.00 0.00 0.00 79 1015.8
20260507221544 5 282 3.2 0.0 0.00 0.00 0.00 78 1015.7
20260507220042 5 282 3.2 0.0 0.00 0.00 0.15 75 1015.8
20260507214547 5 282 3.2 0.0 0.00 0.00 0.15 75 1015.7
20260507213041 5 282 3.2 0.0 0.00 0.00 0.15 75 1015.6
20260507211544 5 282 1.6 0.0 0.00 0.00 0.15 75 1015.6
20260507210040 5 282 1.6 0.0 0.00 0.00 0.15 75 1015.6
20260507204540 5 282 0.0 0.0 0.00 0.00 0.15 75 1015.6
20260507203040 5 282 0.0 0.0 0.00 0.00 0.15 75 1015.6
20260507201543 5 282 0.0 0.0 0.00 0.00 0.15 73 1015.5
20260507200040 5 282 0.0 0.0 0.00 0.00 0.15 72 1015.5
20260507194538 6 282 0.0 0.0 0.00 0.00 0.15 71 1015.5
20260507193039 6 282 0.0 0.0 0.00 0.00 0.15 70 1015.5
20260507191537 6 282 3.2 0.0 0.00 0.00 0.15 69 1015.5
20260507190037 7 282 4.8 0.0 0.00 0.00 0.15 68 1015.4
20260507184538 7 282 6.4 0.0 0.00 0.00 0.15 66 1015.3
20260507183045 7 281 6.4 0.0 0.00 0.00 0.15 66 1015.4
20260507181540 7 286 6.4 0.0 0.00 0.00 0.15 65 1015.3
20260507180036 7 288 6.4 0.0 0.00 0.00 0.15 65 1015.2
20260507174535 7 284 4.8 0.0 0.00 0.00 0.15 65 1015.1
20260507173035 8 284 4.8 0.0 0.00 0.00 0.15 62 1015.1
20260507171533 9 285 3.2 0.0 0.00 0.00 0.15 54 1015.1
20260507170032 9 285 4.8 0.0 0.00 0.00 0.15 56 1015.2
20260507164538 9 284 3.2 0.0 0.00 0.00 0.15 55 1015.2
20260507163037 10 284 3.2 0.0 0.00 0.00 0.15 57 1015.3
20260507161539 9 284 4.8 0.0 0.00 0.00 0.15 54 1015.4
20260507160042 8 281 4.8 0.0 0.00 0.00 0.15 60 1015.5
20260507154531 8 288 4.8 0.0 0.00 0.00 0.15 66 1015.5
20260507153031 8 285 6.4 0.0 0.00 0.00 0.15 64 1015.5
20260507151529 8 292 8.0 0.0 0.00 0.00 0.15 63 1015.6
20260507150030 8 271 6.4 0.0 0.00 0.00 0.15 59 1015.6
20260507144534 9 264 6.4 0.0 0.00 0.00 0.15 58 1015.6
20260507143026 10 242 4.8 0.0 0.00 0.00 0.15 62 1015.8
20260507141524 9 227 6.4 0.0 0.00 0.00 0.15 62 1016.0
20260507140023 9 273 6.4 0.0 0.00 0.00 0.15 59 1015.8
20260507134523 8 226 8.0 0.0 0.00 0.00 0.15 63 1016.0
20260507133022 8 256 6.4 0.0 0.00 0.00 0.15 63 1016.1
20260507131522 8 246 8.0 0.0 0.00 0.00 0.15 64 1016.1
20260507130026 8 271 6.4 0.0 0.00 0.00 0.15 65 1016.1
20260507124524 9 228 8.0 0.0 0.00 0.00 0.15 64 1016.1
20260507123016 8 243 8.0 0.0 0.00 0.00 0.15 65 1016.2
20260507121513 8 226 8.0 0.0 0.00 0.00 0.15 65 1016.4
20260507120012 8 256 9.7 0.0 0.00 0.00 0.15 65 1016.1
20260507114512 9 229 8.0 0.0 0.00 0.00 0.15 65 1016.3
20260507113016 9 208 6.4 0.0 0.00 0.00 0.15 65 1016.4
20260507111515 9 206 6.4 0.0 0.00 0.00 0.15 64 1016.3
20260507110023 7 209 6.4 0.0 0.00 0.00 0.15 67 1016.5
20260507104508 7 202 6.4 0.0 0.00 0.00 0.15 66 1016.2
20260507103007 7 196 8.0 0.0 0.00 0.00 0.15 68 1016.1
20260507101507 7 232 9.7 0.0 0.00 0.00 0.15 71 1016.1
20260507100009 7 223 11.3 0.0 0.00 0.00 0.15 72 1016.1
20260507094505 8 221 8.0 0.0 0.00 0.00 0.15 67 1016.1
20260507093003 8 165 4.8 0.0 0.00 0.00 0.15 65 1016.0
20260507091501 7 165 4.8 0.0 0.00 0.00 0.15 65 1016.0
20260507090106 7 169 3.2 0.0 0.00 0.00 0.15 67 1016.0
20260507084559 7 170 4.8 0.0 0.00 0.00 0.15 68 1016.0
20260507083059 7 165 4.8 0.0 0.00 0.00 0.15 69 1015.8
20260507081558 7 155 4.8 0.0 0.00 0.00 0.15 67 1015.6
20260507074607 7 150 3.2 0.0 0.00 0.00 0.15 70 1015.5
20260507073050 6 144 4.8 0.0 0.00 0.00 0.15 74 1015.5
20260507071551 6 144 6.4 0.0 0.00 0.00 0.15 75 1015.5
20260507070104 6 129 6.4 0.0 0.00 0.00 0.15 76 1015.5
20260507064544 5 126 6.4 0.0 0.00 0.00 0.15 77 1015.4
20260507063053 5 126 6.4 0.0 0.00 0.00 0.15 79 1015.3
20260507061546 5 119 4.8 0.0 0.00 0.00 0.15 82 1015.2
20260507060044 5 119 6.4 0.0 0.00 0.00 0.15 82 1015.1
20260507054542 4 118 4.8 0.0 0.00 0.00 0.15 84 1015.0
20260507053039 3 118 4.8 0.0 0.00 0.00 0.15 85 1015.0
20260507051536 3 118 3.2 0.0 0.00 0.00 0.15 86 1015.0
20260507050037 3 118 4.8 0.0 0.00 0.00 0.15 87 1014.9
20260507044534 3 119 4.8 0.0 0.00 0.00 0.15 87 1014.7
20260507043032 3 118 4.8 0.0 0.00 0.00 0.15 88 1014.6
20260507041531 3 117 4.8 0.0 0.00 0.00 0.15 89 1014.5
20260507040031 3 117 6.4 0.0 0.00 0.00 0.15 89 1014.5
20260507034535 3 112 4.8 0.0 0.00 0.00 0.15 89 1014.5
20260507033030 3 112 4.8 0.0 0.00 0.00 0.15 89 1014.5
20260507031529 3 112 4.8 0.0 0.00 0.00 0.15 89 1014.5